Dewpoint
60 60 60 60 60 60 60 60 60 60 60 60 59 60 60 60 60 61 60 61 61 62 62 62 63 62 62 63 64 62 55 40 38 36 29 32 47 59 58 60 63 65 64 41 36 30 29 27 26 26 33 32 34 34 38 40 39 37 30 30 22 22 17 20 20 23 23 19 19 19 19 19 19 21 18 19 17 17 17 18 19 20 20 22 26 27 26 27
59 59 60 60 60 60 60 60 60 60 60 60 60 60 59 60 60 60 60 60 61 61 62 62 63 62 62 63 63 62 48 44 37 34 33 43 56 61 60 63 65 65 58 36 36 32 31 28 28 28 31 27 37 34 36 35 37 33 30 28 22 25 19 21 19 23 19 18 19 20 19 18 18 19 19 17 17 16 16 16 17 17 18 19 20 21 21 21
58 59 59 59 60 60 60 60 60 60 60 60 60 60 59 58 59 61 60 60 61 61 61 62 63 62 62 63 59 61 47 43 31 29 32 57 60 60 63 65 64 65 44 37 41 35 33 31 28 26 31 27 31 30 33 31 33 33 25 20 24 30 20 21 20 20 20 20 19 18 18 18 19 19 21 17 16 18 15 15 16 16 16 17 19 19 20 21
58 58 58 59 59 60 59 60 60 60 60 60 60 59 59 59 59 60 61 60 60 61 62 62 62 62 61 60 62 54 43 38 30 29 34 56 64 64 64 61 63 61 47 44 41 37 33 28 29 29 32 26 28 33 26 29 24 29 24 22 22 27 20 20 21 21 21 20 20 18 19 18 19 19 19 17 16 17 17 15 15 14 15 15 18 21 21 23
58 58 58 58 59 59 59 59 60 60 59 60 59 60 58 58 59 59 60 60 60 61 62 62 61 62 62 60 60 50 38 23 26 39 39 60 62 63 62 63 58 53 48 43 35 32 29 29 31 31 25 20 27 28 25 28 29 26 16 20 24 24 20 20 21 23 22 22 19 19 17 19 21 21 19 17 16 16 17 17 16 14 14 15 16 18 20 18
58 58 58 58 58 59 58 59 60 59 59 59 60 60 59 59 58 59 59 59 60 60 61 62 62 62 61 59 49 42 35 22 33 35 55 60 60 63 60 60 56 50 37 28 31 32 27 27 25 27 25 21 21 23 24 26 26 17 18 21 25 22 20 21 22 23 20 19 18 17 19 20 20 19 20 18 19 20 20 17 15 14 14 15 16 19 18 18
57 57 57 58 58 58 59 59 59 59 60 60 60 60 60 61 58 59 59 59 59 61 60 62 62 61 59 59 49 37 29 28 36 39 55 59 59 55 56 55 54 35 27 23 24 26 33 27 23 27 26 26 25 23 25 26 23 19 15 21 21 23 20 22 21 24 21 19 18 19 21 19 19 19 19 19 16 17 16 15 15 15 15 16 17 17 16 17
57 57 57 57 58 58 58 59 59 59 60 60 59 60 60 60 60 59 58 59 60 60 61 62 62 60 60 49 47 39 37 35 34 41 53 56 45 42 47 41 39 40 33 29 27 20 30 28 24 28 21 21 25 23 24 20 18 22 21 25 23 22 22 23 21 21 21 20 24 21 20 20 20 19 18 17 16 15 15 15 15 15 16 16 16 16 18 19
57 57 57 57 57 57 58 59 59 59 60 59 59 60 59 60 58 58 59 59 59 60 61 62 61 60 57 43 37 28 27 40 39 39 43 42 39 37 38 32 40 35 35 37 33 28 25 25 26 27 20 22 26 17 21 16 13 26 22 23 21 20 22 21 20 21 21 21 23 18 19 19 19 20 15 16 15 15 15 15 15 15 15 15 16 17 19 20
57 57 57 57 57 57 57 58 58 59 59 59 58 59 59 59 58 58 58 59 59 60 60 61 61 59 46 40 33 26 34 42 40 42 41 41 38 34 36 41 40 38 31 35 30 25 24 28 27 32 28 27 27 21 24 20 16 26 26 23 20 20 20 21 18 19 21 24 21 17 19 18 18 20 16 15 14 15 14 14 14 14 14 15 16 18 19 20
56 56 57 57 57 57 58 58 58 59 59 59 59 58 58 58 59 58 58 59 60 60 61 61 60 56 46 35 28 25 39 39 40 42 41 40 39 35 36 38 39 40 35 35 34 35 30 34 38 36 31 25 22 20 21 20 21 22 20 19 19 19 21 21 20 19 20 19 22 19 19 19 18 23 18 14 14 14 13 13 13 14 13 14 15 16 20 18
56 56 56 57 57 57 58 58 58 58 59 59 59 59 59 60 58 57 58 59 59 61 62 62 58 45 37 35 32 31 38 39 39 43 40 39 38 40 39 39 38 40 33 31 37 40 40 39 35 24 12 26 18 22 22 24 22 21 19 18 18 20 18 19 19 19 19 16 23 21 18 17 19 19 21 14 14 14 13 13 13 13 13 15 14 14 16 15
55 55 56 57 57 57 57 58 58 58 58 58 58 59 59 59 57 58 58 59 59 61 62 61 56 46 35 28 31 40 43 39 40 40 42 43 43 42 42 43 40 38 37 33 36 38 41 37 27 22 29 22 21 16 23 24 22 22 18 18 16 19 18 19 21 20 18 17 23 17 13 16 17 20 14 14 13 13 13 12 13 14 13 14 14 14 14 14
56 55 55 56 56 57 57 58 58 58 58 58 58 59 58 58 58 57 58 60 61 61 61 59 49 40 28 26 35 38 46 37 40 35 40 41 40 42 42 40 40 37 41 37 39 41 39 36 31 25 31 19 18 27 21 23 21 18 18 25 21 18 19 20 20 20 18 23 23 18 16 14 17 19 14 14 13 13 12 12 14 15 15 14 15 14 13 15
56 56 55 55 56 56 57 57 57 58 58 58 57 57 57 57 58 58 59 60 61 61 61 57 46 37 32 30 36 40 54 37 35 38 42 34 37 39 35 35 35 33 39 37 38 40 39 36 31 26 24 27 26 18 18 25 25 24 19 21 24 17 20 23 25 18 17 19 20 19 19 17 17 18 14 13 13 13 12 13 14 15 15 14 14 14 13 12
57 56 55 55 56 56 56 57 57 57 58 58 58 56 55 56 56 58 61 59 61 61 56 48 47 36 29 28 34 49 39 36 34 40 43 40 33 28 34 34 35 30 31 31 33 31 31 33 27 27 25 17 22 23 20 22 22 25 19 21 21 21 20 13 19 23 23 21 21 18 17 17 17 18 15 14 13 13 13 13 14 14 14 14 13 13 13 11
57 56 55 56 55 56 56 57 57 57 58 57 57 56 56 55 57 60 61 57 56 55 47 40 44 34 28 35 35 35 35 38 42 42 38 41 34 32 29 31 28 28 28 31 32 32 29 25 28 22 25 20 23 23 16 22 19 19 22 17 24 17 17 14 15 13 27 20 18 20 18 18 17 17 15 14 14 13 13 13 13 14 13 12 13 12 11 10
57 56 55 55 55 56 56 57 57 57 57 57 57 57 53 56 59 59 47 49 50 53 49 46 40 30 21 33 29 29 40 38 41 40 41 41 33 31 27 25 27 27 28 25 28 25 28 22 29 24 26 21 13 20 21 19 20 17 18 17 17 17 16 15 14 11 21 22 19 20 18 19 19 17 15 15 14 14 13 14 13 13 12 12 12 11 10 11
57 56 55 55 55 55 56 57 57 57 57 56 56 54 56 56 45 38 35 34 34 25 26 34 27 13 10 17 31 37 39 40 40 35 33 31 35 35 33 31 31 24 26 25 24 25 29 30 31 27 25 24 18 13 16 22 21 15 16 17 17 14 13 13 14 14 20 16 16 19 18 16 17 18 17 16 15 14 14 14 14 14 12 11 11 11 10 11
57 56 55 55 55 56 57 57 57 57 56 55 48 38 37 32 30 30 32 30 23 19 20 27 33 33 34 35 35 39 42 35 30 34 36 32 30 26 25 29 32 30 26 28 31 28 31 24 22 22 25 26 25 15 16 16 17 16 19 18 14 16 15 16 14 14 21 19 17 16 17 18 18 19 18 17 16 15 14 14 15 14 12 11 10 10 9 10
57 56 56 55 55 56 56 57 57 56 56 50 41 26 19 25 22 19 27 30 29 34 29 30 33 30 28 37 40 31 33 29 31 32 31 32 28 23 21 22 25 26 26 27 27 29 30 23 24 26 25 26 26 18 17 17 17 15 16 17 15 19 14 15 15 18 17 19 18 19 20 20 19 20 19 18 16 15 14 14 14 13 12 11 10 9 9 8
57 56 56 55 56 56 56 56 57 56 55 45 35 20 25 26 29 27 29 24 30 37 38 35 37 36 38 37 38 32 29 25 25 33 33 33 27 22 21 22 24 23 27 26 26 27 25 22 24 27 28 22 16 18 17 15 18 19 16 18 18 17 20 19 20 21 18 19 17 17 16 16 17 17 18 18 16 16 15 15 14 13 11 10 10 8 8 10
56 55 54 55 57 56 56 56 56 55 43 37 38 39 38 44 43 43 38 32 33 37 39 38 36 37 37 36 35 32 30 29 29 29 31 30 26 24 22 21 22 22 25 24 25 24 23 25 28 28 19 16 17 18 17 19 21 17 19 17 17 21 19 19 20 23 20 17 18 18 17 18 18 18 18 18 18 17 17 16 17 15 12 10 9 8 7 8
55 55 55 56 56 56 56 56 55 47 43 39 40 39 43 43 44 44 38 31 27 29 38 39 38 37 36 32 35 29 30 29 23 24 28 26 23 25 22 20 20 24 23 22 25 24 21 24 24 18 17 16 17 20 16 16 17 22 21 20 19 20 20 19 17 21 20 21 23 18 17 17 19 18 18 18 18 17 17 17 16 17 16 13 14 12 10 7
55 55 55 56 56 56 55 55 44 42 43 43 43 42 43 42 44 43 34 19 17 23 36 37 40 41 37 40 39 27 28 24 23 23 25 23 22 22 21 21 23 22 24 23 23 21 21 21 24 20 22 20 21 20 21 21 16 22 24 21 21 22 20 21 23 19 19 19 22 17 17 18 19 19 18 17 14 15 16 15 15 15 14 11 9 9 11 14
55 55 55 56 57 55 54 45 45 45 43 41 45 46 42 41 41 39 25 16 11 18 30 29 42 33 38 30 34 32 25 24 27 26 35 26 29 23 24 20 25 23 23 19 20 22 22 23 23 23 22 23 22 20 23 22 20 21 23 25 23 23 22 22 20 20 17 14 19 21 16 17 14 16 17 17 14 14 14 15 15 15 14 11 9 9 8 9
55 54 56 57 56 54 44 37 46 45 39 42 44 43 43 44 43 43 23 13 9 24 26 35 33 32 37 34 29 30 21 27 24 21 23 27 24 25 24 23 21 20 22 19 23 19 19 20 22 24 23 24 23 20 23 22 22 21 24 26 25 24 22 20 19 20 18 22 21 20 17 14 15 16 17 17 15 14 14 13 14 14 14 12 10 9 8 8
55 55 56 56 55 52 46 42 43 41 38 46 45 41 42 41 44 37 10 -2 -5 31 31 33 35 37 34 31 31 25 25 24 22 21 22 22 24 20 23 23 22 21 15 24 19 25 19 21 22 22 22 22 21 22 25 26 23 23 25 21 19 19 19 20 18 17 20 16 16 17 19 13 14 16 12 15 14 14 14 13 12 13 13 12 11 9 8 7
55 55 56 55 53 52 44 42 42 39 47 47 43 44 44 42 37 23 11 -4 10 29 32 32 37 33 30 29 26 25 24 25 23 25 26 22 25 20 22 22 23 22 19 25 21 24 25 23 24 24 22 20 23 25 26 26 23 25 25 24 24 24 23 20 18 17 17 14 17 19 17 13 18 18 12 12 13 14 14 14 13 12 13 12 11 9 8 7
56 56 55 52 50 45 43 43 43 45 46 44 42 44 43 38 31 12 11 -5 26 24 25 29 29 30 29 26 27 25 26 26 24 20 19 19 21 22 22 21 19 20 20 24 22 26 26 31 30 25 23 25 25 25 26 25 25 25 24 22 23 21 21 21 19 18 12 8 18 19 17 17 18 18 16 15 15 14 15 14 14 13 12 11 9 8 8 7
56 57 56 53 47 46 39 35 44 46 46 45 44 42 35 28 23 14 -1 13 12 26 26 29 26 31 27 27 26 27 26 25 24 20 19 21 19 22 21 22 28 26 25 24 24 25 25 24 22 24 28 26 26 24 25 25 25 23 20 18 22 23 17 12 9 13 9 13 14 16 18 16 15 16 17 15 15 11 15 15 14 13 11 10 9 7 7 7
56 57 55 51 48 44 45 35 47 47 43 43 39 32 23 19 20 12 11 20 9 21 24 26 29 29 27 29 28 24 26 25 24 21 20 19 21 20 22 22 24 18 20 20 20 24 24 24 25 26 32 26 24 24 23 26 25 22 21 20 16 17 15 15 5 7 9 16 13 10 17 15 14 17 19 17 14 14 11 13 15 14 12 10 9 7 7 8
56 56 54 50 49 46 44 43 46 44 43 42 34 26 19 18 10 18 13 18 4 24 22 30 28 29 28 27 27 28 29 25 24 20 25 25 21 23 25 23 27 20 14 21 22 21 22 25 26 25 25 28 25 21 20 21 21 21 20 18 16 13 8 11 11 5 9 14 17 8 13 13 16 16 18 17 18 18 14 10 12 15 13 10 9 8 7 9
56 55 52 49 48 48 46 45 44 44 42 39 29 28 24 14 13 32 15 16 13 30 31 29 29 27 27 26 27 28 24 28 24 22 25 24 23 22 24 25 26 24 22 24 19 20 14 16 21 25 23 27 25 24 24 24 21 20 22 21 22 17 13 13 10 12 15 18 13 9 10 14 13 17 16 17 17 4 3 8 11 13 15 12 9 9 7 8
56 54 51 48 47 46 47 47 44 44 40 31 26 25 20 16 18 18 20 19 20 28 28 29 28 26 26 26 27 29 27 22 26 25 24 25 24 25 24 23 27 28 27 19 25 21 21 20 22 25 24 25 24 25 26 24 23 20 22 21 16 20 23 19 16 11 14 15 16 7 15 14 16 14 13 12 4 2 6 6 11 9 12 11 8 7 7 7
53 51 51 49 47 46 48 47 44 43 37 25 22 22 21 17 15 20 15 24 26 26 29 28 27 25 25 25 26 27 28 24 26 25 26 25 26 25 26 26 25 26 23 19 22 20 21 19 24 23 24 26 23 22 21 26 20 20 19 16 21 23 23 16 14 9 8 8 14 7 13 16 19 18 13 10 2 0 0 0 3 5 8 9 8 7 6 7
51 50 48 49 47 46 48 47 47 42 30 24 23 21 23 22 22 23 35 19 23 29 26 19 23 24 24 25 25 26 27 26 27 26 25 25 23 26 25 27 28 27 25 20 20 24 17 18 24 23 24 20 17 21 21 20 25 20 16 19 18 22 20 17 13 8 6 10 15 10 14 15 19 19 11 5 6 4 1 -0 0 4 6 6 8 8 7 8
51 50 49 49 49 48 48 48 44 39 29 23 23 27 25 22 25 18 29 28 27 28 25 17 19 26 23 25 25 26 27 24 25 25 24 23 19 26 26 26 28 27 26 26 17 24 23 18 22 23 23 21 22 21 22 22 20 21 21 24 15 14 11 10 11 12 8 9 12 17 17 18 20 20 16 11 4 6 3 -0 -2 0 3 5 7 7 7 8
50 48 44 46 50 49 49 47 43 35 25 24 25 26 29 25 27 25 28 29 30 28 23 24 12 21 25 25 25 27 26 23 25 25 20 22 22 25 25 27 27 28 27 26 22 25 25 17 18 22 19 21 19 23 21 18 17 20 18 15 18 17 16 9 15 13 16 16 15 18 20 19 22 22 22 23 10 11 8 -0 -2 -1 1 3 5 7 7 9
47 45 43 48 49 49 48 46 41 33 29 27 25 25 29 26 26 27 27 27 25 26 26 23 24 16 25 24 26 25 27 26 25 25 23 22 22 25 23 27 27 27 25 27 26 28 24 21 15 20 22 22 18 20 23 20 18 14 14 12 8 11 17 19 12 15 16 15 17 18 19 21 21 23 22 21 15 10 8 4 2 1 1 2 4 7 8 8
49 45 44 48 49 49 47 42 39 37 35 33 29 26 28 26 30 27 27 30 28 29 26 26 26 21 22 24 23 26 26 27 25 23 24 23 20 16 24 26 29 27 26 27 27 26 22 22 20 18 20 18 21 21 24 23 22 18 18 18 15 15 11 10 15 13 13 18 18 19 18 22 23 20 20 21 16 12 9 5 3 2 1 2 5 6 7 9
46 38 42 48 49 47 43 40 39 37 33 33 30 29 27 35 29 29 30 30 30 26 30 27 28 25 25 22 24 26 25 26 26 24 24 22 24 20 23 28 29 27 26 26 26 28 26 23 20 18 20 19 21 23 19 22 21 21 19 19 19 17 18 14 16 18 11 15 18 19 18 20 18 17 18 17 15 9 7 4 3 2 1 1 4 6 8 8
43 40 46 48 48 45 43 39 39 38 37 35 32 32 30 29 28 29 31 30 29 30 28 28 26 26 26 24 25 24 26 24 26 25 25 26 24 22 26 28 29 28 28 23 27 22 31 20 16 21 22 23 17 20 21 19 17 18 20 19 17 16 18 19 20 20 17 15 15 16 17 20 18 13 15 12 11 9 4 2 3 2 -0 1 4 6 8 10
44 44 44 49 49 46 40 33 33 36 37 36 33 32 31 30 30 29 29 31 30 30 27 25 28 25 25 28 25 23 26 20 25 26 25 27 26 27 26 28 26 26 25 23 22 28 20 24 21 17 15 18 19 19 19 19 16 16 19 20 19 20 20 19 18 19 16 20 17 19 17 19 21 18 10 5 5 4 1 1 2 3 2 3 3 6 9 11
45 45 44 46 48 46 39 34 28 31 35 35 34 33 32 31 32 29 29 28 30 29 28 27 25 28 28 28 27 25 27 21 19 27 25 26 26 25 25 29 26 25 25 27 32 29 24 23 22 16 16 14 11 9 13 17 18 16 13 16 19 19 19 17 17 18 17 20 19 19 20 21 22 13 6 2 4 3 2 -0 0 3 3 1 5 7 10 11
41 36 42 41 44 43 42 43 38 31 30 33 32 32 32 31 30 32 31 29 29 29 30 30 28 29 28 27 26 26 26 28 23 23 26 26 26 26 24 25 27 27 33 34 31 27 19 23 22 21 20 17 15 14 18 20 15 15 15 16 18 19 20 21 20 18 18 20 19 21 21 20 21 21 18 13 3 3 2 2 0 -0 3 5 5 8 10 11
43 37 39 33 42 41 40 41 39 38 32 33 30 31 30 32 31 28 33 28 31 30 30 30 28 28 27 27 27 26 28 27 29 26 25 26 27 26 25 23 24 26 33 29 32 24 19 20 22 22 22 21 20 20 22 21 17 17 17 15 16 18 20 20 20 19 21 21 18 21 22 22 21 22 22 22 21 6 3 3 1 0 3 6 6 8 18 11
39 40 42 41 36 34 36 37 40 38 38 33 28 33 30 29 30 28 31 31 31 31 28 27 30 29 26 28 27 26 26 27 27 26 27 27 27 26 26 24 25 31 30 25 28 25 22 23 24 23 22 23 23 23 23 22 20 20 21 20 16 16 18 19 20 21 20 20 19 20 22 22 21 21 22 23 23 22 11 5 2 2 2 5 7 9 12 11
45 41 43 43 36 35 37 37 40 39 37 35 31 29 27 26 26 29 28 30 30 29 29 24 26 29 28 28 28 25 26 22 24 27 27 27 28 26 25 25 27 25 28 23 25 24 22 24 25 24 24 24 24 24 24 23 23 23 24 24 24 16 16 17 18 20 20 21 21 21 22 21 22 22 23 23 24 24 20 12 6 3 3 6 8 9 11 10
42 42 39 43 40 38 37 37 38 39 36 37 33 31 28 26 24 27 30 31 30 30 31 26 23 25 29 29 29 25 24 23 20 22 28 27 28 28 27 27 24 22 23 24 24 23 25 24 27 23 23 24 25 25 24 25 24 24 24 24 25 24 20 20 19 19 21 20 20 21 21 21 22 23 23 24 25 23 14 8 4 3 5 7 8 9 10 10
46 47 45 40 38 40 39 37 37 38 36 36 34 33 31 29 27 26 27 31 27 27 30 29 28 25 30 30 29 27 26 25 25 24 26 29 26 29 27 28 26 23 23 22 21 21 25 24 24 21 23 24 25 23 23 24 24 24 24 24 24 24 23 24 23 22 21 21 21 21 21 21 22 23 24 24 24 23 19 13 5 4 5 8 9 9 10 10
49 46 47 44 38 40 39 37 38 37 34 36 35 34 32 31 31 30 26 29 31 31 30 31 30 33 27 29 29 29 29 28 27 27 26 29 30 30 29 29 27 25 23 24 23 23 25 24 24 21 22 23 25 23 23 23 23 23 24 24 25 24 24 25 25 26 25 24 23 23 23 23 24 25 25 25 20 20 19 17 10 6 6 8 8 9 10 10